PROFILE

 METAR AND TAF INFORMATION
ADDS - METARS form results

(0613 UTC 22 September 2019)
http://aviationweather.gov/metar/data/
 
GOBD 220600Z 36008KT 8000 -TSRA FEW012 FEW030CB 27/26 Q1011 NOSIG
TAF GOBD 220530Z 2206/2312 01008KT 8000 TS SCT015 FEW030CB BECMG 2207/2209 NSW SCT015 PROB40 TEMPO 2212/2218 4500 TSRA BKN015 FEW018CB 

 AIRPORT MAP

 RUNWAY INFORMATION
Runway 01 Runway length 11483 ft Runway width 197 ft
Runway elevation 272 ft Runway displaced threshold 0 ft Runway heading 7
Runway 19 Runway length 11483 ft Runway width 197 ft
Runway elevation 251 ft Runway displaced threshold 0 ft Runway heading 187

 AIRPORT FREQUENCIES
Type GND Name Dakar GND Frequency 121.8 MHZ
Type A/D Name Dakar TWR Frequency 118.8 MHZ
Type ATIS Name Dakar ATIS Frequency 126.6 MHZ
Type APP Name Dakar APP Frequency 120.5 MHZ

 AIRPORT NEAR NAVIGATION AIDS